K3BAY-1 Weather Reports


time (UTC)temp
F
wind
direction
speed
knots
gust
knots
rain 1hr
in
rain 24hr
in
rain mn
in
humidity
%
barometer
mb
20260504203148 74 281 1.7 5.2 0.00 0.00 0.00 38 1013.2
20260504202643 75 299 1.7 5.2 0.00 0.00 0.00 37 1013.2
20260504202140 74 15 0.9 1.7 0.00 0.00 0.00 37 1013.2
20260504201637 74 297 0.0 2.6 0.00 0.00 0.00 38 1013.2
20260504201135 75 43 1.7 1.7 0.00 0.00 0.00 38 1013.6
20260504200632 75 247 0.0 2.6 0.00 0.00 0.00 37 1013.6
20260504200128 74 36 1.7 3.5 0.00 0.00 0.00 38 1013.6
20260504195624 75 295 0.9 6.1 0.00 0.00 0.00 38 1013.6
20260504195121 75 351 0.0 2.6 0.00 0.00 0.00 37 1013.6
20260504194618 74 42 1.7 1.7 0.00 0.00 0.00 37 1013.6
20260504194114 74 291 0.9 2.6 0.00 0.00 0.00 37 1013.6
20260504193610 75 9 0.9 1.7 0.00 0.00 0.00 37 1013.9
20260504193109 74 17 0.0 1.7 0.00 0.00 0.00 37 1013.9
20260504192606 75 107 0.0 2.6 0.00 0.00 0.00 37 1013.9
20260504192104 74 293 0.0 2.6 0.00 0.00 0.00 38 1013.6
20260504191603 75 120 1.7 2.6 0.00 0.00 0.00 37 1014.2
20260504191058 75 313 3.5 5.2 0.00 0.00 0.00 36 1013.9
20260504190554 74 140 0.0 1.7 0.00 0.00 0.00 37 1014.2
20260504190050 73 38 0.0 1.7 0.00 0.00 0.00 38 1014.2
20260504185548 74 346 3.5 3.5 0.00 0.00 0.00 36 1013.9
20260504185044 73 335 1.7 2.6 0.00 0.00 0.00 38 1014.2
20260504184540 73 179 0.0 2.6 0.00 0.00 0.00 37 1014.2
20260504184035 73 215 0.9 1.7 0.00 0.00 0.00 37 1014.2
20260504183533 73 327 0.9 2.6 0.00 0.00 0.00 37 1014.2
20260504183031 74 292 0.0 0.9 0.00 0.00 0.00 36 1014.2
20260504182527 73 274 0.0 3.5 0.00 0.00 0.00 37 1014.2
20260504182025 74 72 0.0 3.5 0.00 0.00 0.00 38 1014.6
20260504181521 73 99 0.0 3.5 0.00 0.00 0.00 37 1014.6
20260504181020 75 46 0.0 2.6 0.00 0.00 0.00 37 1014.6
20260504180518 74 84 0.0 3.5 0.00 0.00 0.00 37 1014.6
20260504180017 74 321 0.0 1.7 0.00 0.00 0.00 38 1014.6
20260504175514 76 47 0.9 2.6 0.00 0.00 0.00 36 1014.6
20260504175011 75 82 0.0 0.9 0.00 0.00 0.00 36 1014.6
20260504174509 74 45 0.0 2.6 0.00 0.00 0.00 37 1014.6
20260504174005 73 31 1.7 1.7 0.00 0.00 0.00 38 1014.6
20260504173502 74 74 0.9 1.7 0.00 0.00 0.00 38 1014.6
20260504173000 76 80 0.9 2.6 0.00 0.00 0.00 35 1014.6
20260504172455 77 58 0.0 1.7 0.00 0.00 0.00 31 1014.9
20260504171952 78 319 0.0 0.9 0.00 0.00 0.00 33 1014.6
20260504171449 78 76 0.0 0.9 0.00 0.00 0.00 32 1014.6
20260504170946 77 73 0.0 0.9 0.00 0.00 0.00 33 1014.6
20260504170442 75 46 0.9 2.6 0.00 0.00 0.00 36 1014.6
20260504160402 74 338 2.6 2.6 0.00 0.00 0.00 32 1014.2
20260504150826 68 160 2.6 2.6 0.00 0.00 0.00 47 1014.2
20260504150322 66 136 0.9 2.6 0.00 0.00 0.00 47 1014.6
20260504141253 66 81 0.0 0.0 0.00 0.00 0.00 47 1014.2
20260504140749 65 80 0.0 0.0 0.00 0.00 0.00 45 1014.2
20260504140245 66 86 0.0 0.9 0.00 0.00 0.00 46 1014.2
20260504130714 61 78 0.9 1.7 0.00 0.00 0.00 52 1014.2
20260504130209 60 83 0.9 2.6 0.00 0.00 0.00 51 1014.2
20260504120133 56 47 0.9 1.7 0.00 0.00 0.00 59 1014.2
20260504110601 52 70 0.9 3.5 0.00 0.00 0.00 67 1014.6
20260504100523 52 79 0.0 0.0 0.00 0.00 0.00 69 1014.2
20260504081916 52 62 0.0 0.0 0.00 0.00 0.00 65 1014.6
20260504081413 52 68 0.0 0.0 0.00 0.00 0.00 65 1014.2
20260504080909 52 75 0.0 0.0 0.00 0.00 0.00 64 1014.2
20260504080406 52 68 0.0 0.0 0.00 0.00 0.00 63 1014.2
20260504070333 51 65 0.9 0.9 0.00 0.00 0.00 62 1014.2
20260504050721 50 73 0.0 0.0 0.00 0.00 0.00 60 1013.9
20260504050218 50 66 0.0 0.0 0.00 0.00 0.00 60 1013.9
20260504045716 50 64 0.0 0.0 0.00 0.00 0.00 58 1013.9
20260504045215 50 72 0.0 0.9 0.00 0.00 0.00 59 1013.9
20260504044714 51 68 0.0 0.0 0.00 0.00 0.00 61 1013.9
20260504044211 51 51 0.0 0.9 0.00 0.00 0.00 58 1013.6
20260504043708 51 77 0.0 0.9 0.00 0.00 0.00 58 1013.6
20260504043204 51 21 0.9 0.9 0.00 0.00 0.00 59 1013.6
20260504042702 51 82 0.0 1.7 0.00 0.00 0.00 60 1013.6
20260504042158 51 0 0.0 0.9 0.00 0.00 0.00 60 1013.6
20260504041654 51 81 0.9 1.7 0.00 0.00 0.00 59 1013.6
20260504041150 51 36 0.0 1.7 0.00 0.00 0.00 60 1013.9
20260504040648 51 10 0.0 0.9 0.00 0.00 0.00 61 1013.6
20260504040144 51 56 0.0 0.9 0.00 0.00 0.00 61 1013.2
20260504035641 51 74 0.0 0.0 0.00 0.00 0.00 61 1013.6
20260504035138 51 70 1.7 2.6 0.00 0.00 0.00 59 1013.6
20260504034636 51 77 0.0 0.9 0.00 0.00 0.00 58 1013.2
20260504034132 51 56 0.0 0.9 0.00 0.00 0.00 61 1013.2
20260504033630 50 31 0.0 0.9 0.00 0.00 0.00 64 1013.2
20260504033127 49 84 0.0 0.0 0.00 0.00 0.00 66 1013.2
20260504032624 49 81 0.0 0.0 0.00 0.00 0.00 64 1013.2
20260504032121 48 81 0.0 0.0 0.00 0.00 0.00 67 1013.2
20260504031618 48 82 0.0 0.0 0.00 0.00 0.00 67 1012.9
20260504031114 48 85 0.0 0.0 0.00 0.00 0.00 64 1012.9
20260504030611 48 85 0.0 0.0 0.00 0.00 0.00 65 1012.9
20260504030108 47 82 0.0 0.0 0.00 0.00 0.00 68 1013.2
20260504025605 48 82 0.0 0.0 0.00 0.00 0.00 68 1013.2
20260504025102 47 82 0.0 0.0 0.00 0.00 0.00 68 1012.9
20260504024559 48 84 0.0 0.0 0.00 0.00 0.00 68 1012.9
20260504024055 48 79 0.0 0.0 0.00 0.00 0.00 67 1012.6
20260504023552 48 78 0.0 0.0 0.00 0.00 0.00 66 1012.6
20260504023048 48 85 0.0 0.0 0.00 0.00 0.00 65 1012.6
20260504022544 48 81 0.0 0.0 0.00 0.00 0.00 65 1012.6
20260504022040 48 81 0.0 0.0 0.00 0.00 0.00 64 1012.6
20260504021538 48 81 0.0 0.0 0.00 0.00 0.00 63 1012.9
20260504021035 48 79 0.0 0.0 0.00 0.00 0.00 62 1012.6
20260504020532 48 81 0.0 0.0 0.00 0.00 0.00 61 1012.9
20260504020028 48 80 0.0 0.0 0.00 0.00 0.00 61 1012.6
20260504015525 49 81 0.0 0.0 0.00 0.00 0.00 60 1012.9
20260504015021 49 81 0.0 0.0 0.00 0.00 0.00 61 1012.9
20260504014517 49 81 0.0 0.0 0.00 0.00 0.00 60 1012.9
20260504014014 49 81 0.0 0.0 0.00 0.00 0.00 60 1012.9
20260504013512 49 81 0.0 0.0 0.00 0.00 0.00 59 1012.9
20260504013009 49 82 0.0 0.0 0.00 0.00 0.00 59 1012.9
20260504012506 50 77 0.0 0.0 0.00 0.00 0.00 59 1013.2
20260504012004 50 81 0.0 0.0 0.00 0.00 0.00 56 1012.9
20260504011500 50 79 0.0 0.0 0.00 0.00 0.00 56 1013.2
20260504010956 51 80 0.0 0.0 0.00 0.00 0.00 56 1013.2
20260504010452 51 81 0.0 0.0 0.00 0.00 0.00 55 1012.9
20260504005948 51 80 0.0 0.0 0.00 0.00 0.00 54 1012.9
20260504005445 51 81 0.0 0.0 0.00 0.00 0.00 53 1012.9
20260504004943 52 81 0.0 0.0 0.00 0.00 0.00 51 1012.9
20260504004440 53 83 0.0 0.0 0.00 0.00 0.00 51 1012.9
20260504003937 53 83 0.0 0.0 0.00 0.00 0.00 50 1012.9
20260504003433 53 77 0.0 0.0 0.00 0.00 0.00 49 1012.9
20260504002930 53 82 0.0 0.0 0.00 0.00 0.00 51 1012.9
20260504002427 54 80 0.0 0.0 0.00 0.00 0.00 50 1013.2
20260504001925 54 81 0.0 0.0 0.00 0.00 0.00 49 1013.2
20260504001422 55 82 0.0 0.0 0.00 0.00 0.00 47 1013.2
20260504000918 55 72 0.0 0.0 0.00 0.00 0.00 48 1013.2
20260504000416 56 74 0.0 0.0 0.00 0.00 0.00 46 1013.2
20260503235913 57 81 0.0 0.0 0.00 0.00 0.00 46 1013.2
20260503235411 57 80 0.0 0.0 0.00 0.00 0.00 45 1013.2
20260503234908 59 83 0.0 0.0 0.00 0.00 0.00 42 1013.2
20260503234405 59 82 0.0 0.0 0.00 0.00 0.00 40 1013.6
20260503233903 60 87 0.0 0.0 0.00 0.00 0.00 37 1013.2
20260503233359 61 69 0.0 0.0 0.00 0.00 0.00 36 1013.6
20260503232856 61 24 0.0 0.0 0.00 0.00 0.00 35 1013.2
20260503232353 61 86 0.0 5.2 0.00 0.00 0.00 35 1013.6
20260503231851 62 79 0.0 0.0 0.00 0.00 0.00 35 1013.6
20260503231347 64 65 0.0 0.0 0.00 0.00 0.00 34 1013.6
20260503230844 64 87 0.9 2.6 0.00 0.00 0.00 31 1013.6
20260503230340 65 57 0.0 1.7 0.00 0.00 0.00 32 1013.2
20260503225839 65 76 0.0 0.0 0.00 0.00 0.00 32 1013.2
20260503225334 64 78 0.0 0.0 0.00 0.00 0.00 32 1013.2
20260503224831 63 63 0.0 1.7 0.00 0.00 0.00 32 1013.6
20260503224328 64 83 0.0 1.7 0.00 0.00 0.00 33 1013.6
20260503223826 65 54 0.0 3.5 0.00 0.00 0.00 31 1013.6
20260503223323 65 52 0.0 0.0 0.00 0.00 0.00 31 1013.6
20260503222819 65 44 0.9 3.5 0.00 0.00 0.00 30 1013.6
20260503222317 64 100 0.0 5.2 0.00 0.00 0.00 30 1013.6
20260503221815 65 49 0.0 6.1 0.00 0.00 0.00 31 1013.6
20260503221314 65 82 1.7 5.2 0.00 0.00 0.00 33 1013.6
20260503220809 64 56 0.9 6.1 0.00 0.00 0.00 32 1013.9
20260503220306 66 71 0.9 1.7 0.00 0.00 0.00 30 1013.6
20260503215803 65 67 0.0 2.6 0.00 0.00 0.00 30 1013.6
20260503215300 65 57 0.9 6.1 0.00 0.00 0.00 30 1013.9
20260503214758 65 74 0.0 0.9 0.00 0.00 0.00 32 1013.9
20260503214255 65 92 0.0 3.5 0.00 0.00 0.00 33 1013.9
20260503213752 64 77 0.0 5.2 0.00 0.00 0.00 33 1013.9
20260503213250 66 97 0.0 5.2 0.00 0.00 0.00 34 1014.2
20260503212746 64 76 0.0 1.7 0.00 0.00 0.00 32 1013.6
20260503212244 67 98 1.7 3.5 0.00 0.00 0.00 33 1013.9
20260503211741 66 58 0.0 0.0 0.00 0.00 0.00 30 1013.9
20260503211238 65 47 0.0 1.7 0.00 0.00 0.00 31 1013.9
20260503210733 65 79 0.0 3.5 0.00 0.00 0.00 31 1013.9
20260503210231 66 73 0.0 1.7 0.00 0.00 0.00 31 1014.2
20260503205726 66 75 0.0 0.9 0.00 0.00 0.00 32 1014.2
20260503205222 64 93 0.0 1.7 0.00 0.00 0.00 33 1014.2
20260503204719 64 139 0.9 5.2 0.00 0.00 0.00 34 1014.2
20260503204217 63 110 1.7 3.5 0.00 0.00 0.00 32 1014.6
20260503203714 64 47 0.0 1.7 0.00 0.00 0.00 31 1014.2